| time (UTC) | temp F | wind direction | speed MPH | gust MPH | rain 1hr in | rain 24hr in | rain mn in | humidity % | barometer mb |
| 20260507124623 | 41 | 331 | 0.0 | 0.0 | 0.00 | 0.30 | 0.00 | 70 | 1012.7 |
| 20260507124016 | 41 | 269 | 0.0 | 0.0 | 0.00 | 0.30 | 0.00 | 73 | 1012.6 |
| 20260507123537 | 41 | 231 | 0.0 | 0.0 | 0.00 | 0.30 | 0.00 | 74 | 1012.6 |
| 20260507123010 | 40 | 282 | 0.0 | 0.0 | 0.00 | 0.30 | 0.00 | 73 | 1012.5 |
| 20260507122527 | 40 | 302 | 0.0 | 1.0 | 0.00 | 0.30 | 0.00 | 74 | 1012.5 |
| 20260507122044 | 41 | 251 | 0.0 | 1.0 | 0.00 | 0.30 | 0.00 | 74 | 1012.4 |
| 20260507121522 | 40 | 261 | 0.0 | 0.0 | 0.00 | 0.30 | 0.00 | 75 | 1012.4 |
| 20260507121037 | 40 | 259 | 0.0 | 0.0 | 0.00 | 0.30 | 0.00 | 77 | 1012.4 |
| 20260507120555 | 40 | 290 | 0.0 | 0.0 | 0.00 | 0.30 | 0.00 | 76 | 1012.5 |
| 20260507120020 | 40 | 282 | 0.0 | 0.0 | 0.00 | 0.30 | 0.00 | 77 | 1012.5 |
| 20260507115541 | 39 | 251 | 0.0 | 0.0 | 0.00 | 0.39 | 0.00 | 79 | 1012.5 |
| 20260507115059 | 39 | 255 | 0.0 | 0.0 | 0.00 | 0.39 | 0.00 | 77 | 1012.5 |
| 20260507114526 | 39 | 248 | 0.0 | 0.0 | 0.00 | 0.39 | 0.00 | 77 | 1012.3 |
| 20260507114042 | 39 | 257 | 0.0 | 0.0 | 0.00 | 0.39 | 0.00 | 77 | 1012.4 |
| 20260507113558 | 39 | 244 | 0.0 | 0.0 | 0.00 | 0.39 | 0.00 | 78 | 1012.4 |
| 20260507113108 | 39 | 230 | 0.0 | 0.0 | 0.00 | 0.39 | 0.00 | 78 | 1012.4 |
| 20260507112514 | 39 | 245 | 0.0 | 0.0 | 0.00 | 0.39 | 0.00 | 79 | 1012.3 |
| 20260507112038 | 39 | 240 | 0.0 | 0.0 | 0.00 | 0.39 | 0.00 | 80 | 1012.2 |
| 20260507111512 | 38 | 167 | 0.0 | 0.0 | 0.00 | 0.39 | 0.00 | 81 | 1012.1 |
| 20260507111027 | 38 | 136 | 0.0 | 0.0 | 0.00 | 0.39 | 0.00 | 81 | 1012.0 |
| 20260507110545 | 38 | 152 | 0.0 | 0.0 | 0.00 | 0.39 | 0.00 | 81 | 1012.0 |
| 20260507110017 | 38 | 171 | 0.0 | 0.0 | 0.00 | 0.39 | 0.00 | 81 | 1012.1 |
| 20260507105535 | 38 | 171 | 0.0 | 0.0 | 0.00 | 0.43 | 0.00 | 81 | 1012.2 |
| 20260507105050 | 37 | 217 | 0.0 | 0.0 | 0.00 | 0.43 | 0.00 | 81 | 1012.1 |
| 20260507104505 | 37 | 176 | 0.0 | 0.0 | 0.00 | 0.43 | 0.00 | 82 | 1012.2 |
| 20260507104020 | 37 | 217 | 0.0 | 0.0 | 0.00 | 0.43 | 0.00 | 82 | 1012.2 |
| 20260507103538 | 37 | 202 | 0.0 | 0.0 | 0.00 | 0.43 | 0.00 | 84 | 1012.0 |
| 20260507103044 | 36 | 209 | 0.0 | 0.0 | 0.00 | 0.43 | 0.00 | 84 | 1012.1 |
| 20260507102606 | 36 | 199 | 0.0 | 0.0 | 0.00 | 0.43 | 0.00 | 86 | 1012.0 |
| 20260507102126 | 35 | 203 | 0.0 | 0.0 | 0.00 | 0.43 | 0.00 | 87 | 1011.9 |
| 20260507101522 | 35 | 234 | 0.0 | 0.0 | 0.00 | 0.43 | 0.00 | 88 | 1011.8 |
| 20260507101040 | 35 | 212 | 0.0 | 0.0 | 0.00 | 0.43 | 0.00 | 88 | 1011.8 |
| 20260507100557 | 35 | 207 | 0.0 | 0.0 | 0.00 | 0.43 | 0.00 | 88 | 1011.8 |
| 20260507100002 | 35 | 207 | 0.0 | 0.0 | 0.00 | 0.43 | 0.00 | 89 | 1011.8 |
| 20260507095522 | 35 | 264 | 0.0 | 0.0 | 0.00 | 0.45 | 0.00 | 89 | 1011.8 |
| 20260507095036 | 35 | 266 | 0.0 | 0.0 | 0.00 | 0.45 | 0.00 | 89 | 1011.8 |
| 20260507094508 | 35 | 258 | 0.0 | 0.0 | 0.00 | 0.45 | 0.00 | 90 | 1011.7 |
| 20260507094024 | 35 | 138 | 0.0 | 0.0 | 0.00 | 0.45 | 0.00 | 90 | 1011.5 |
| 20260507093541 | 35 | 169 | 0.0 | 0.0 | 0.00 | 0.45 | 0.00 | 90 | 1011.7 |
| 20260507093009 | 35 | 158 | 0.0 | 0.0 | 0.00 | 0.45 | 0.00 | 90 | 1011.7 |
| 20260507092528 | 35 | 209 | 0.0 | 0.0 | 0.00 | 0.45 | 0.00 | 90 | 1011.8 |
| 20260507092043 | 35 | 234 | 0.0 | 0.0 | 0.00 | 0.45 | 0.00 | 90 | 1011.9 |
| 20260507091520 | 35 | 183 | 0.0 | 0.0 | 0.00 | 0.45 | 0.00 | 90 | 1011.8 |
| 20260507091040 | 35 | 258 | 0.0 | 0.0 | 0.00 | 0.45 | 0.00 | 90 | 1012.0 |
| 20260507090553 | 36 | 223 | 0.0 | 0.0 | 0.00 | 0.45 | 0.00 | 90 | 1011.9 |
| 20260507090022 | 36 | 221 | 0.0 | 0.0 | 0.00 | 0.45 | 0.00 | 90 | 1011.9 |
| 20260507085543 | 36 | 209 | 0.0 | 0.0 | 0.00 | 0.49 | 0.00 | 90 | 1012.0 |
| 20260507085058 | 36 | 259 | 0.0 | 0.0 | 0.00 | 0.49 | 0.00 | 89 | 1012.0 |
| 20260507084606 | 36 | 287 | 0.0 | 0.0 | 0.00 | 0.49 | 0.00 | 89 | 1012.0 |
| 20260507084032 | 36 | 278 | 0.0 | 0.0 | 0.00 | 0.49 | 0.00 | 89 | 1012.0 |
| 20260507083550 | 36 | 251 | 0.0 | 0.0 | 0.00 | 0.49 | 0.00 | 89 | 1012.0 |
| 20260507083029 | 36 | 258 | 0.0 | 0.0 | 0.00 | 0.49 | 0.00 | 88 | 1012.0 |
| 20260507082549 | 37 | 279 | 0.0 | 0.0 | 0.00 | 0.49 | 0.00 | 88 | 1012.0 |
| 20260507082102 | 37 | 275 | 0.0 | 0.0 | 0.00 | 0.49 | 0.00 | 89 | 1012.0 |
| 20260507081502 | 37 | 289 | 0.0 | 0.0 | 0.00 | 0.49 | 0.00 | 88 | 1012.0 |
| 20260507081022 | 37 | 289 | 0.0 | 0.0 | 0.00 | 0.49 | 0.00 | 88 | 1011.9 |
| 20260507080539 | 37 | 292 | 0.0 | 0.0 | 0.00 | 0.49 | 0.00 | 88 | 1011.8 |
| 20260507080010 | 37 | 313 | 0.0 | 0.0 | 0.00 | 0.49 | 0.00 | 88 | 1011.7 |
| 20260507075523 | 37 | 259 | 0.0 | 0.0 | 0.00 | 0.49 | 0.00 | 88 | 1011.8 |
| 20260507075037 | 37 | 307 | 0.0 | 0.0 | 0.00 | 0.49 | 0.00 | 89 | 1011.8 |
| 20260507074516 | 37 | 313 | 0.0 | 0.0 | 0.00 | 0.49 | 0.00 | 89 | 1011.8 |
| 20260507074034 | 38 | 281 | 0.0 | 0.0 | 0.00 | 0.49 | 0.00 | 89 | 1011.8 |
| 20260507073543 | 38 | 293 | 0.0 | 0.0 | 0.00 | 0.49 | 0.00 | 89 | 1011.6 |
| 20260507073010 | 38 | 276 | 0.0 | 0.0 | 0.00 | 0.49 | 0.00 | 89 | 1011.6 |
| 20260507072530 | 38 | 271 | 0.0 | 0.0 | 0.00 | 0.49 | 0.00 | 90 | 1011.5 |
| 20260507072047 | 38 | 289 | 0.0 | 0.0 | 0.00 | 0.49 | 0.00 | 90 | 1011.6 |
| 20260507071515 | 38 | 252 | 0.0 | 0.0 | 0.00 | 0.49 | 0.00 | 90 | 1011.5 |
| 20260507071040 | 38 | 285 | 0.0 | 0.0 | 0.00 | 0.49 | 0.00 | 89 | 1011.5 |
| 20260507070554 | 38 | 245 | 0.0 | 0.0 | 0.00 | 0.49 | 0.00 | 90 | 1011.6 |
| 20260507070014 | 38 | 289 | 0.0 | 0.0 | 0.00 | 0.49 | 0.00 | 90 | 1011.6 |
| 20260507065529 | 38 | 254 | 0.0 | 0.0 | 0.00 | 0.52 | 0.00 | 90 | 1011.7 |
| 20260507065045 | 38 | 213 | 0.0 | 0.0 | 0.00 | 0.52 | 0.00 | 90 | 1011.7 |
| 20260507064506 | 38 | 304 | 0.0 | 0.0 | 0.00 | 0.52 | 0.00 | 90 | 1011.6 |
| 20260507064023 | 39 | 299 | 0.0 | 0.0 | 0.00 | 0.52 | 0.00 | 90 | 1011.7 |
| 20260507063544 | 39 | 248 | 0.0 | 0.0 | 0.00 | 0.52 | 0.00 | 91 | 1011.8 |
| 20260507063021 | 39 | 297 | 0.0 | 0.0 | 0.00 | 0.52 | 0.00 | 91 | 1011.8 |
| 20260507062537 | 39 | 280 | 0.0 | 0.0 | 0.00 | 0.52 | 0.00 | 92 | 1011.8 |
| 20260507062054 | 39 | 290 | 0.0 | 0.0 | 0.00 | 0.52 | 0.00 | 92 | 1011.8 |
| 20260507061522 | 39 | 307 | 0.0 | 1.0 | 0.00 | 0.52 | 0.00 | 92 | 1011.7 |
| 20260507061042 | 39 | 303 | 0.0 | 1.0 | 0.00 | 0.52 | 0.00 | 93 | 1011.8 |
| 20260507060602 | 39 | 319 | 0.0 | 0.0 | 0.00 | 0.52 | 0.00 | 93 | 1011.8 |
| 20260507060009 | 39 | 279 | 0.0 | 2.0 | 0.00 | 0.52 | 0.00 | 93 | 1011.8 |
| 20260507055528 | 40 | 258 | 0.0 | 2.0 | 0.00 | 0.52 | 0.00 | 93 | 1011.9 |
| 20260507055044 | 40 | 271 | 0.0 | 2.0 | 0.00 | 0.52 | 0.00 | 93 | 1011.9 |
| 20260507054509 | 40 | 299 | 0.0 | 2.0 | 0.00 | 0.52 | 0.00 | 93 | 1011.8 |
| 20260507054031 | 40 | 269 | 0.0 | 1.0 | 0.00 | 0.52 | 0.00 | 94 | 1011.9 |
| 20260507053548 | 40 | 305 | 0.0 | 1.0 | 0.00 | 0.52 | 0.00 | 94 | 1011.9 |
| 20260507053104 | 40 | 297 | 0.0 | 1.0 | 0.00 | 0.52 | 0.00 | 94 | 1011.9 |
| 20260507052622 | 40 | 304 | 0.0 | 2.0 | 0.00 | 0.52 | 0.00 | 94 | 1011.9 |
| 20260507052012 | 40 | 308 | 0.0 | 2.0 | 0.00 | 0.52 | 0.00 | 94 | 1011.9 |
| 20260507051555 | 41 | 313 | 0.0 | 4.0 | 0.00 | 0.52 | 0.00 | 94 | 1011.9 |
| 20260507051111 | 41 | 300 | 0.0 | 5.0 | 0.00 | 0.52 | 0.00 | 93 | 1011.8 |
| 20260507050629 | 41 | 334 | 0.0 | 1.0 | 0.00 | 0.52 | 0.00 | 93 | 1011.9 |
| 20260507050018 | 41 | 259 | 0.0 | 1.0 | 0.00 | 0.52 | 0.00 | 93 | 1011.9 |
| 20260507045538 | 41 | 293 | 0.0 | 1.0 | 0.00 | 0.52 | 0.00 | 93 | 1011.8 |
| 20260507045057 | 41 | 296 | 0.0 | 7.0 | 0.00 | 0.52 | 0.00 | 93 | 1011.7 |
| 20260507044501 | 41 | 299 | 0.0 | 10.0 | 0.00 | 0.52 | 0.00 | 93 | 1011.7 |
| 20260507044019 | 41 | 296 | 0.0 | 10.0 | 0.00 | 0.52 | 0.00 | 93 | 1011.6 |
| 20260507043538 | 42 | 305 | 0.0 | 6.0 | 0.00 | 0.52 | 0.00 | 93 | 1011.6 |
| 20260507043116 | 42 | 302 | 0.0 | 6.0 | 0.00 | 0.52 | 0.00 | 93 | 1011.4 |
| 20260507042511 | 42 | 289 | 0.0 | 3.0 | 0.00 | 0.52 | 0.00 | 93 | 1011.3 |
| 20260507042029 | 42 | 313 | 0.0 | 3.0 | 0.00 | 0.52 | 0.00 | 93 | 1011.2 |
| 20260507041516 | 42 | 302 | 0.0 | 0.0 | 0.00 | 0.52 | 0.00 | 93 | 1011.1 |
| 20260507041023 | 42 | 287 | 0.0 | 0.0 | 0.00 | 0.52 | 0.00 | 93 | 1011.0 |
| 20260507040546 | 42 | 279 | 0.0 | 0.0 | 0.00 | 0.52 | 0.00 | 93 | 1010.9 |
| 20260507040056 | 42 | 259 | 0.0 | 0.0 | 0.00 | 0.52 | 0.00 | 93 | 1010.9 |
| 20260507035616 | 42 | 317 | 0.0 | 0.0 | 0.00 | 0.54 | 0.52 | 93 | 1010.9 |
| 20260507035009 | 42 | 303 | 0.0 | 0.0 | 0.00 | 0.54 | 0.52 | 93 | 1011.0 |
| 20260507034556 | 42 | 313 | 0.0 | 0.0 | 0.00 | 0.54 | 0.52 | 93 | 1011.0 |
| 20260507034108 | 42 | 281 | 0.0 | 0.0 | 0.00 | 0.54 | 0.52 | 93 | 1011.0 |
| 20260507033627 | 42 | 259 | 0.0 | 0.0 | 0.00 | 0.54 | 0.52 | 93 | 1011.1 |
| 20260507033015 | 42 | 265 | 0.0 | 0.0 | 0.00 | 0.54 | 0.52 | 93 | 1011.0 |
| 20260507032529 | 42 | 255 | 0.0 | 0.0 | 0.00 | 0.54 | 0.52 | 93 | 1011.1 |
| 20260507032053 | 42 | 251 | 0.0 | 0.0 | 0.00 | 0.54 | 0.52 | 93 | 1011.2 |
| 20260507031504 | 42 | 248 | 0.0 | 0.0 | 0.00 | 0.54 | 0.52 | 93 | 1011.1 |
| 20260507031020 | 42 | 249 | 0.0 | 0.0 | 0.00 | 0.54 | 0.52 | 93 | 1011.1 |
| 20260507030543 | 42 | 302 | 0.0 | 0.0 | 0.00 | 0.54 | 0.52 | 93 | 1011.0 |
| 20260507030121 | 42 | 264 | 0.0 | 0.0 | 0.00 | 0.54 | 0.52 | 93 | 1011.0 |
| 20260507025517 | 42 | 264 | 0.0 | 0.0 | 0.00 | 0.56 | 0.52 | 93 | 1011.0 |
| 20260507025048 | 42 | 261 | 0.0 | 0.0 | 0.00 | 0.56 | 0.52 | 93 | 1011.1 |
| 20260507024513 | 42 | 252 | 0.0 | 0.0 | 0.00 | 0.56 | 0.52 | 93 | 1011.1 |
| 20260507024034 | 42 | 261 | 0.0 | 0.0 | 0.00 | 0.56 | 0.52 | 93 | 1011.1 |
| 20260507023556 | 42 | 265 | 0.0 | 0.0 | 0.00 | 0.56 | 0.52 | 93 | 1011.2 |
| 20260507023004 | 42 | 252 | 0.0 | 0.0 | 0.00 | 0.56 | 0.52 | 93 | 1011.1 |
| 20260507022527 | 42 | 230 | 0.0 | 0.0 | 0.00 | 0.56 | 0.52 | 93 | 1011.2 |
| 20260507022047 | 42 | 252 | 0.0 | 0.0 | 0.00 | 0.56 | 0.52 | 93 | 1011.1 |
| 20260507021500 | 42 | 251 | 0.0 | 0.0 | 0.00 | 0.56 | 0.52 | 93 | 1011.1 |
| 20260507021022 | 42 | 212 | 0.0 | 0.0 | 0.00 | 0.56 | 0.52 | 93 | 1011.0 |
| 20260507020540 | 42 | 210 | 0.0 | 0.0 | 0.00 | 0.56 | 0.52 | 93 | 1011.1 |
| 20260507020007 | 42 | 216 | 0.0 | 0.0 | 0.00 | 0.56 | 0.52 | 93 | 1011.1 |
| 20260507015524 | 42 | 224 | 0.0 | 0.0 | 0.00 | 0.59 | 0.52 | 93 | 1011.1 |
| 20260507015038 | 42 | 197 | 0.0 | 0.0 | 0.00 | 0.59 | 0.52 | 93 | 1011.2 |
| 20260507014615 | 42 | 220 | 0.0 | 0.0 | 0.00 | 0.59 | 0.52 | 93 | 1011.2 |
| 20260507014015 | 42 | 200 | 0.0 | 0.0 | 0.00 | 0.59 | 0.52 | 93 | 1011.1 |
| 20260507013534 | 42 | 204 | 0.0 | 0.0 | 0.00 | 0.59 | 0.52 | 93 | 1011.1 |
| 20260507013115 | 42 | 252 | 0.0 | 0.0 | 0.00 | 0.59 | 0.52 | 93 | 1011.1 |
| 20260507012510 | 42 | 252 | 0.0 | 0.0 | 0.00 | 0.59 | 0.52 | 93 | 1011.2 |
| 20260507012034 | 42 | 248 | 0.0 | 0.0 | 0.00 | 0.59 | 0.52 | 93 | 1011.2 |
| 20260507011605 | 42 | 258 | 0.0 | 0.0 | 0.00 | 0.59 | 0.52 | 93 | 1011.2 |
| 20260507011010 | 42 | 259 | 0.0 | 0.0 | 0.00 | 0.59 | 0.52 | 93 | 1010.9 |
| 20260507010534 | 42 | 259 | 0.0 | 0.0 | 0.00 | 0.59 | 0.52 | 93 | 1011.0 |
| 20260507010007 | 42 | 242 | 0.0 | 0.0 | 0.00 | 0.59 | 0.52 | 93 | 1011.1 |
| 20260507005523 | 42 | 259 | 0.0 | 0.0 | 0.00 | 0.59 | 0.52 | 93 | 1011.1 |
| 20260507005041 | 42 | 266 | 0.0 | 0.0 | 0.00 | 0.59 | 0.52 | 93 | 1011.1 |
| 20260507004625 | 42 | 247 | 0.0 | 0.0 | 0.00 | 0.59 | 0.52 | 93 | 1011.0 |
| 20260507004008 | 42 | 261 | 0.0 | 0.0 | 0.00 | 0.59 | 0.52 | 93 | 1010.9 |
| 20260507003529 | 42 | 258 | 0.0 | 0.0 | 0.00 | 0.59 | 0.52 | 93 | 1011.0 |
| 20260507003106 | 42 | 269 | 0.0 | 0.0 | 0.00 | 0.59 | 0.52 | 93 | 1010.9 |
| 20260507002516 | 42 | 257 | 0.0 | 0.0 | 0.00 | 0.59 | 0.52 | 93 | 1010.7 |
| 20260507002036 | 42 | 252 | 0.0 | 0.0 | 0.00 | 0.59 | 0.52 | 93 | 1010.6 |
| 20260507001622 | 42 | 286 | 0.0 | 0.0 | 0.00 | 0.59 | 0.52 | 93 | 1010.4 |
| 20260507001120 | 42 | 273 | 0.0 | 0.0 | 0.00 | 0.59 | 0.52 | 93 | 1010.7 |
| 20260507000501 | 43 | 261 | 0.0 | 0.0 | 0.00 | 0.59 | 0.52 | 93 | 1010.5 |
| 20260507000030 | 43 | 238 | 0.0 | 0.0 | 0.00 | 0.59 | 0.52 | 93 | 1010.3 |
| 20260506235544 | 43 | 252 | 0.0 | 0.0 | 0.00 | 0.59 | 0.52 | 93 | 1010.2 |
| 20260506235058 | 43 | 271 | 0.0 | 0.0 | 0.00 | 0.59 | 0.52 | 93 | 1010.2 |
| 20260506234518 | 43 | 297 | 0.0 | 0.0 | 0.00 | 0.59 | 0.52 | 93 | 1010.2 |
| 20260506234036 | 43 | 282 | 0.0 | 0.0 | 0.00 | 0.59 | 0.52 | 93 | 1010.0 |
| 20260506233553 | 43 | 271 | 0.0 | 0.0 | 0.00 | 0.59 | 0.52 | 93 | 1009.9 |
| 20260506233022 | 43 | 265 | 0.0 | 0.0 | 0.00 | 0.59 | 0.52 | 93 | 1009.6 |
| 20260506232532 | 43 | 230 | 0.0 | 0.0 | 0.00 | 0.59 | 0.52 | 93 | 1009.3 |
| 20260506232052 | 43 | 148 | 0.0 | 0.0 | 0.00 | 0.59 | 0.52 | 93 | 1009.1 |
| 20260506231513 | 43 | 228 | 0.0 | 0.0 | 0.00 | 0.59 | 0.52 | 93 | 1009.3 |
| 20260506231030 | 43 | 228 | 0.0 | 0.0 | 0.00 | 0.59 | 0.52 | 93 | 1009.5 |
| 20260506230544 | 43 | 279 | 0.0 | 0.0 | 0.00 | 0.59 | 0.52 | 93 | 1009.5 |
| 20260506230015 | 43 | 299 | 0.0 | 0.0 | 0.00 | 0.59 | 0.52 | 93 | 1009.6 |
| 20260506225530 | 43 | 289 | 0.0 | 0.0 | 0.00 | 0.59 | 0.52 | 93 | 1009.6 |
| 20260506225050 | 43 | 257 | 0.0 | 0.0 | 0.00 | 0.59 | 0.52 | 93 | 1009.7 |
| 20260506224514 | 43 | 285 | 0.0 | 0.0 | 0.00 | 0.59 | 0.52 | 93 | 1009.6 |
| 20260506224037 | 43 | 303 | 0.0 | 0.0 | 0.00 | 0.59 | 0.52 | 93 | 1009.6 |
| 20260506223554 | 43 | 303 | 0.0 | 0.0 | 0.00 | 0.59 | 0.52 | 93 | 1009.6 |
| 20260506223005 | 43 | 327 | 0.0 | 2.0 | 0.00 | 0.59 | 0.52 | 93 | 1009.7 |
| 20260506222518 | 43 | 297 | 0.0 | 2.0 | 0.00 | 0.59 | 0.52 | 93 | 1009.8 |
| 20260506222037 | 43 | 293 | 0.0 | 1.0 | 0.00 | 0.59 | 0.52 | 93 | 1009.7 |
| 20260506221516 | 43 | 317 | 0.0 | 1.0 | 0.00 | 0.59 | 0.52 | 93 | 1009.8 |
| 20260506221036 | 43 | 278 | 0.0 | 3.0 | 0.00 | 0.59 | 0.52 | 93 | 1009.7 |
| 20260506220554 | 43 | 317 | 0.0 | 3.0 | 0.00 | 0.59 | 0.52 | 93 | 1009.7 |
| 20260506220014 | 43 | 313 | 0.0 | 3.0 | 0.00 | 0.59 | 0.52 | 93 | 1009.6 |
| 20260506215528 | 43 | 316 | 0.0 | 1.0 | 0.00 | 0.61 | 0.52 | 93 | 1009.4 |
| 20260506215044 | 43 | 337 | 0.0 | 1.0 | 0.00 | 0.61 | 0.52 | 93 | 1009.3 |
| 20260506214525 | 42 | 292 | 0.0 | 1.0 | 0.00 | 0.61 | 0.52 | 93 | 1009.3 |
| 20260506214040 | 42 | 307 | 0.0 | 2.0 | 0.00 | 0.61 | 0.52 | 93 | 1009.3 |
| 20260506213600 | 43 | 316 | 0.0 | 1.0 | 0.00 | 0.61 | 0.52 | 93 | 1009.3 |
| 20260506213107 | 43 | 297 | 0.0 | 1.0 | 0.00 | 0.61 | 0.52 | 93 | 1009.3 |
| 20260506212511 | 43 | 282 | 0.0 | 1.0 | 0.00 | 0.61 | 0.52 | 93 | 1009.2 |
| 20260506212028 | 43 | 313 | 0.0 | 1.0 | 0.00 | 0.61 | 0.52 | 93 | 1009.1 |
| 20260506211610 | 43 | 240 | 0.0 | 3.0 | 0.00 | 0.61 | 0.52 | 93 | 1008.9 |
| 20260506211018 | 43 | 293 | 0.0 | 4.0 | 0.00 | 0.61 | 0.52 | 93 | 1009.1 |
| 20260506210539 | 43 | 238 | 0.0 | 4.0 | 0.00 | 0.61 | 0.52 | 93 | 1009.0 |
| 20260506210137 | 43 | 307 | 0.0 | 8.0 | 0.00 | 0.61 | 0.52 | 93 | 1008.9 |
| 20260506205520 | 43 | 302 | 0.0 | 8.0 | 0.00 | 0.63 | 0.52 | 93 | 1008.7 |
| 20260506205036 | 43 | 297 | 0.0 | 1.0 | 0.01 | 0.63 | 0.52 | 93 | 1008.7 |
| 20260506204556 | 43 | 300 | 0.0 | 1.0 | 0.01 | 0.63 | 0.52 | 93 | 1008.6 |
| 20260506204121 | 43 | 310 | 0.0 | 1.0 | 0.01 | 0.63 | 0.52 | 93 | 1008.5 |
| 20260506203634 | 43 | 285 | 0.0 | 2.0 | 0.01 | 0.63 | 0.52 | 93 | 1008.5 |
| 20260506203040 | 42 | 289 | 0.0 | 2.0 | 0.01 | 0.63 | 0.52 | 93 | 1008.4 |
| 20260506202546 | 42 | 330 | 0.0 | 1.0 | 0.02 | 0.63 | 0.52 | 93 | 1008.2 |
| 20260506202050 | 43 | 299 | 0.0 | 1.0 | 0.02 | 0.63 | 0.52 | 93 | 1008.2 |
| 20260506201624 | 43 | 323 | 0.0 | 2.0 | 0.02 | 0.63 | 0.52 | 93 | 1008.3 |
| 20260506201009 | 43 | 3 | 0.0 | 3.0 | 0.02 | 0.63 | 0.52 | 93 | 1008.2 |
| 20260506200528 | 43 | 307 | 0.0 | 3.0 | 0.03 | 0.63 | 0.52 | 93 | 1008.3 |
| 20260506200118 | 43 | 299 | 0.0 | 5.0 | 0.03 | 0.63 | 0.52 | 93 | 1008.3 |
| 20260506195613 | 43 | 273 | 0.0 | 5.0 | 0.03 | 0.63 | 0.52 | 93 | 1008.3 |
| 20260506195125 | 43 | 313 | 0.0 | 3.0 | 0.03 | 0.62 | 0.51 | 93 | 1008.2 |
| 20260506194524 | 43 | 337 | 0.0 | 0.0 | 0.03 | 0.62 | 0.51 | 93 | 1008.2 |
| 20260506194041 | 43 | 265 | 0.0 | 1.0 | 0.04 | 0.62 | 0.51 | 93 | 1008.2 |
| 20260506193556 | 43 | 338 | 0.0 | 1.0 | 0.04 | 0.62 | 0.51 | 93 | 1008.1 |
| 20260506193110 | 43 | 299 | 0.0 | 1.0 | 0.04 | 0.62 | 0.51 | 93 | 1008.0 |
| 20260506192514 | 43 | 302 | 0.0 | 1.0 | 0.03 | 0.61 | 0.50 | 93 | 1008.0 |
| 20260506192037 | 43 | 294 | 0.0 | 2.0 | 0.03 | 0.61 | 0.50 | 93 | 1008.0 |
| 20260506191604 | 43 | 273 | 0.0 | 2.0 | 0.03 | 0.61 | 0.50 | 93 | 1007.9 |
| 20260506191124 | 43 | 278 | 0.0 | 2.0 | 0.03 | 0.61 | 0.50 | 93 | 1007.9 |
| 20260506190509 | 43 | 302 | 0.0 | 2.0 | 0.02 | 0.60 | 0.49 | 93 | 1008.0 |
| 20260506190045 | 44 | 297 | 0.0 | 2.0 | 0.02 | 0.60 | 0.49 | 93 | 1007.9 |
| 20260506185606 | 44 | 294 | 0.0 | 4.0 | 0.02 | 0.64 | 0.49 | 93 | 1007.9 |
| 20260506185120 | 44 | 305 | 0.0 | 4.0 | 0.01 | 0.63 | 0.48 | 93 | 1007.8 |
| 20260506184524 | 44 | 296 | 0.0 | 1.0 | 0.01 | 0.63 | 0.48 | 93 | 1007.6 |
| 20260506184042 | 44 | 314 | 0.0 | 0.0 | 0.00 | 0.62 | 0.47 | 93 | 1007.5 |
| 20260506183602 | 44 | 318 | 0.0 | 0.0 | 0.00 | 0.62 | 0.47 | 93 | 1007.5 |
| 20260506183007 | 44 | 323 | 0.0 | 0.0 | 0.00 | 0.62 | 0.47 | 93 | 1007.4 |
| 20260506182526 | 44 | 306 | 0.0 | 0.0 | 0.00 | 0.62 | 0.47 | 93 | 1007.3 |
| 20260506182044 | 44 | 296 | 0.0 | 0.0 | 0.00 | 0.62 | 0.47 | 93 | 1007.2 |
| 20260506181519 | 44 | 304 | 0.0 | 0.0 | 0.00 | 0.62 | 0.47 | 93 | 1007.2 |
| 20260506181034 | 44 | 318 | 0.0 | 0.0 | 0.00 | 0.62 | 0.47 | 93 | 1007.2 |
| 20260506180554 | 44 | 307 | 0.0 | 0.0 | 0.00 | 0.62 | 0.47 | 93 | 1007.2 |
| 20260506180014 | 44 | 307 | 0.0 | 0.0 | 0.00 | 0.62 | 0.47 | 93 | 1007.0 |
| 20260506175530 | 44 | 304 | 0.0 | 0.0 | 0.01 | 0.62 | 0.47 | 93 | 1007.0 |
| 20260506175046 | 44 | 319 | 0.0 | 0.0 | 0.01 | 0.62 | 0.47 | 93 | 1007.0 |
| 20260506174518 | 44 | 302 | 0.0 | 0.0 | 0.02 | 0.62 | 0.47 | 93 | 1006.9 |
| 20260506174039 | 44 | 317 | 0.0 | 0.0 | 0.02 | 0.62 | 0.47 | 93 | 1007.0 |
| 20260506173559 | 44 | 318 | 0.0 | 0.0 | 0.02 | 0.62 | 0.47 | 93 | 1006.8 |
| 20260506173026 | 44 | 309 | 0.0 | 0.0 | 0.02 | 0.62 | 0.47 | 93 | 1006.9 |
| 20260506172544 | 44 | 27 | 0.0 | 0.0 | 0.02 | 0.62 | 0.47 | 93 | 1006.9 |
| 20260506172056 | 44 | 29 | 0.0 | 0.0 | 0.02 | 0.62 | 0.47 | 93 | 1006.8 |
| 20260506171505 | 44 | 24 | 0.0 | 0.0 | 0.02 | 0.62 | 0.47 | 93 | 1006.8 |
| 20260506171026 | 43 | 323 | 0.0 | 0.0 | 0.02 | 0.62 | 0.47 | 93 | 1006.8 |
| 20260506170549 | 43 | 337 | 0.0 | 0.0 | 0.03 | 0.62 | 0.47 | 93 | 1006.8 |
| 20260506170017 | 43 | 302 | 0.0 | 0.0 | 0.03 | 0.62 | 0.47 | 93 | 1006.7 |
| 20260506165534 | 43 | 328 | 0.0 | 0.0 | 0.02 | 0.61 | 0.46 | 93 | 1006.8 |
| 20260506165056 | 43 | 10 | 0.0 | 0.0 | 0.02 | 0.61 | 0.46 | 93 | 1006.8 |
| 20260506164524 | 43 | 323 | 0.0 | 0.0 | 0.01 | 0.60 | 0.45 | 93 | 1007.0 |
| 20260506164042 | 43 | 316 | 0.0 | 0.0 | 0.02 | 0.60 | 0.45 | 93 | 1006.8 |
| 20260506163556 | 43 | 9 | 0.0 | 0.0 | 0.02 | 0.60 | 0.45 | 93 | 1006.7 |
| 20260506163109 | 42 | 28 | 0.0 | 0.0 | 0.02 | 0.60 | 0.45 | 93 | 1006.8 |
| 20260506162515 | 42 | 307 | 0.0 | 0.0 | 0.02 | 0.60 | 0.45 | 93 | 1006.9 |
| 20260506162041 | 42 | 327 | 0.0 | 0.0 | 0.02 | 0.60 | 0.45 | 93 | 1007.0 |
| 20260506161520 | 42 | 337 | 0.0 | 0.0 | 0.02 | 0.60 | 0.45 | 93 | 1007.0 |
| 20260506161028 | 42 | 353 | 0.0 | 0.0 | 0.02 | 0.60 | 0.45 | 93 | 1007.1 |
| 20260506160550 | 42 | 352 | 0.0 | 0.0 | 0.01 | 0.59 | 0.44 | 93 | 1007.0 |
| 20260506160022 | 42 | 327 | 0.0 | 0.0 | 0.02 | 0.59 | 0.44 | 93 | 1007.1 |
| 20260506155540 | 42 | 282 | 0.0 | 0.0 | 0.02 | 0.59 | 0.44 | 93 | 1007.0 |
| 20260506155100 | 42 | 20 | 0.0 | 0.0 | 0.02 | 0.59 | 0.44 | 93 | 1007.0 |
| 20260506154506 | 42 | 316 | 0.0 | 0.0 | 0.02 | 0.59 | 0.44 | 93 | 1007.2 |
| 20260506154029 | 42 | 295 | 0.0 | 0.0 | 0.02 | 0.57 | 0.43 | 93 | 1007.1 |
| 20260506153547 | 42 | 65 | 0.0 | 0.0 | 0.02 | 0.57 | 0.43 | 93 | 1007.0 |
| 20260506153022 | 42 | 1 | 0.0 | 0.0 | 0.03 | 0.57 | 0.43 | 93 | 1007.1 |
| 20260506152540 | 42 | 303 | 0.0 | 0.0 | 0.03 | 0.57 | 0.43 | 93 | 1007.3 |
| 20260506152100 | 42 | 306 | 0.0 | 0.0 | 0.04 | 0.57 | 0.43 | 93 | 1007.1 |
| 20260506151502 | 42 | 325 | 0.0 | 0.0 | 0.04 | 0.57 | 0.43 | 93 | 1006.7 |
| 20260506151022 | 42 | 337 | 0.0 | 0.0 | 0.05 | 0.57 | 0.43 | 93 | 1006.6 |
| 20260506150546 | 42 | 31 | 0.0 | 0.0 | 0.05 | 0.57 | 0.43 | 93 | 1006.5 |
| 20260506150010 | 42 | 48 | 0.0 | 0.0 | 0.05 | 0.56 | 0.42 | 93 | 1006.4 |
| 20260506145529 | 42 | 318 | 0.0 | 0.0 | 0.05 | 0.56 | 0.42 | 93 | 1006.4 |
| 20260506145046 | 42 | 29 | 0.0 | 0.0 | 0.06 | 0.56 | 0.42 | 93 | 1006.5 |
| 20260506144512 | 42 | 58 | 0.0 | 0.0 | 0.06 | 0.56 | 0.42 | 93 | 1006.5 |
| 20260506144030 | 42 | 337 | 0.0 | 0.0 | 0.06 | 0.56 | 0.41 | 93 | 1006.7 |
| 20260506143546 | 42 | 67 | 0.0 | 0.0 | 0.06 | 0.56 | 0.41 | 93 | 1006.5 |
| 20260506143022 | 42 | 43 | 0.0 | 0.0 | 0.06 | 0.55 | 0.40 | 93 | 1006.6 |
| 20260506142536 | 42 | 20 | 0.0 | 0.0 | 0.07 | 0.55 | 0.40 | 93 | 1006.7 |
| 20260506141520 | 42 | 24 | 0.0 | 0.0 | 0.07 | 0.54 | 0.39 | 93 | 1006.6 |
| 20260506141038 | 42 | 32 | 0.0 | 0.0 | 0.07 | 0.53 | 0.38 | 93 | 1006.7 |
| 20260506140557 | 42 | 34 | 0.0 | 0.0 | 0.08 | 0.53 | 0.38 | 93 | 1006.7 |
| 20260506140006 | 42 | 35 | 0.0 | 0.0 | 0.09 | 0.52 | 0.37 | 93 | 1006.6 |
| 20260506135526 | 42 | 64 | 0.0 | 0.0 | 0.09 | 0.52 | 0.37 | 93 | 1006.7 |
| 20260506135042 | 42 | 44 | 0.0 | 0.0 | 0.09 | 0.51 | 0.36 | 93 | 1006.6 |
| 20260506134620 | 42 | 49 | 0.0 | 1.0 | 0.09 | 0.51 | 0.36 | 93 | 1006.7 |
| 20260506134017 | 42 | 1 | 0.0 | 1.0 | 0.09 | 0.50 | 0.35 | 93 | 1006.8 |
| 20260506133535 | 42 | 32 | 0.0 | 0.0 | 0.10 | 0.50 | 0.35 | 93 | 1006.8 |
| 20260506133002 | 42 | 15 | 0.0 | 0.0 | 0.09 | 0.49 | 0.34 | 93 | 1006.9 |
| 20260506132524 | 42 | 27 | 0.0 | 0.0 | 0.09 | 0.48 | 0.33 | 93 | 1006.9 |
| 20260506132040 | 42 | 32 | 0.0 | 0.0 | 0.09 | 0.48 | 0.33 | 93 | 1006.7 |
| 20260506131521 | 42 | 29 | 0.0 | 0.0 | 0.09 | 0.47 | 0.32 | 93 | 1006.8 |
| 20260506131035 | 42 | 335 | 0.0 | 0.0 | 0.08 | 0.46 | 0.31 | 93 | 1007.0 |
| 20260506130556 | 42 | 337 | 0.0 | 0.0 | 0.07 | 0.44 | 0.28 | 93 | 1006.9 |
| 20260506130011 | 42 | 326 | 0.0 | 0.0 | 0.06 | 0.43 | 0.28 | 93 | 1006.9 |
| 20260506125530 | 42 | 10 | 0.0 | 0.0 | 0.07 | 0.43 | 0.28 | 93 | 1006.6 |
| 20260506125048 | 42 | 55 | 0.0 | 0.0 | 0.07 | 0.42 | 0.27 | 93 | 1006.8 |